Weather History for Durango, CO

Change the Weather History Date:

Sunday, November 11, 2012

  Actual Average Record
Temperature  
Mean Temperature 24 °F 37 °F  
Max Temperature 31 °F 51 °F 73 °F (1973)
Min Temperature 16 °F 23 °F 12 °F (1998)
Degree Days  
Heating Degree Days 41 28  
Month to date heating degree days 262 287  
Since 1 July heating degree days 910 1075  
Cooling Degree Days 0 0  
Month to date cooling degree days 0 0  
Year to date cooling degree days 477 243  
Moisture  
Dew Point 10 °F    
Average Humidity 61    
Maximum Humidity 91    
Minimum Humidity 31    
Precipitation  
Precipitation T in 0.05 in 1.01 in (1978)
Month to date precipitation 1.10 0.63  
Year to date precipitation 6.91 13.85  
Sea Level Pressure  
Sea Level Pressure 30.21 in    
Wind  
Wind Speed 12 mph (West)    
Max Wind Speed 29 mph    
Max Gust Speed 39 mph    
Visibility 10 miles    
Events Snow    
T = Trace of Precipitation, MM = Missing Value Source: NWS Daily Summary

Daily Weather History Graph

Daily Weather History Graph

Search for Another Location

Airport:

Trip Planner

Search our weather history database for the weather conditions in past years. The results will help you decide how hot, cold, wet, or windy it might be!

Date:

Astronomy

Nov. 11, 2012 Rise Set
Actual Time 6:46 AM MST 5:03 PM MST
Civil Twilight 6:18 AM MST 5:31 PM MST
Nautical Twilight 5:47 AM MST 6:02 PM MST
Astronomical Twilight 5:16 AM MST 6:33 PM MST
Moon 4:06 AM MST (11/11) 3:27 PM MST (11/11)
Length of Visible Light 11h 12m
Length of Day
10h 17m
Waning Crescent, 7% of the Moon is Illuminated
Nov 11
Waning Crescent
Nov 13
New
Nov 20
First Quarter
Nov 28
Full
Dec 6
Last Quarter

Hourly Weather History & Observations

Time (MST) Temp. Windchill Dew Point Humidity Pressure Visibility Wind Dir Wind Speed Gust Speed Precip Events Conditions
12:53 AM 19.9 °F - 15.1 °F 81% 29.94 in 10.0 mi Calm Calm - N/A   Clear
1:53 AM 19.9 °F - 17.1 °F 89% 29.96 in 10.0 mi Calm Calm - N/A   Clear
2:53 AM 21.0 °F 12.4 °F 15.1 °F 78% 29.98 in 10.0 mi WSW 6.9 mph - N/A   Clear
3:53 AM 21.0 °F 10.6 °F 14.0 °F 74% 29.98 in 10.0 mi WSW 9.2 mph - N/A   Clear
4:53 AM 21.9 °F 10.4 °F 14.0 °F 72% 30.01 in 10.0 mi West 11.5 mph - N/A   Clear
5:53 AM 21.0 °F 8.1 °F 15.1 °F 78% 30.04 in 10.0 mi WSW 13.8 mph - N/A   Clear
7:53 AM 21.9 °F 8.2 °F 14.0 °F 72% 30.13 in 10.0 mi West 16.1 mph - N/A   Clear
9:53 AM 28.9 °F 17.3 °F 6.1 °F 38% 30.15 in 10.0 mi West 16.1 mph 24.2 mph N/A   Clear
10:53 AM 30.0 °F 16.6 °F 8.1 °F 40% 30.16 in 10.0 mi West 23.0 mph 27.6 mph N/A   Clear
11:53 AM 30.9 °F 17.2 °F 8.1 °F 38% 30.17 in 10.0 mi West 25.3 mph 33.4 mph N/A   Clear
12:53 PM 27.0 °F 12.8 °F 14.0 °F 58% 30.21 in 10.0 mi WNW 21.9 mph 33.4 mph N/A   Partly Cloudy
1:30 PM 24.8 °F 8.1 °F 15.8 °F 69% 30.09 in 2.5 mi West 28.8 mph 35.7 mph 0.00 in Snow Light Snow
1:46 PM 26.6 °F 13.4 °F 8.6 °F 47% 30.09 in 9.0 mi West 18.4 mph 32.2 mph 0.00 in   Scattered Clouds
1:53 PM 27.0 °F 12.8 °F 8.1 °F 45% 30.23 in 10.0 mi West 21.9 mph 29.9 mph 0.00 in   Partly Cloudy
2:53 PM 28.0 °F 14.6 °F 8.1 °F 43% 30.25 in 9.0 mi West 20.7 mph 32.2 mph 0.00 in   Mostly Cloudy
3:53 PM 30.0 °F 18.7 °F 3.9 °F 33% 30.26 in 10.0 mi WNW 16.1 mph 25.3 mph N/A   Clear
4:53 PM 27.0 °F 15.6 °F 5.0 °F 39% 30.31 in 10.0 mi NW 13.8 mph - N/A   Clear
5:53 PM 25.0 °F 12.6 °F 6.1 °F 45% 30.36 in 10.0 mi WNW 15.0 mph - N/A   Clear
6:53 PM 24.1 °F 16.0 °F 5.0 °F 44% 30.39 in 10.0 mi West 6.9 mph - N/A   Clear
7:53 PM 21.9 °F - 7.0 °F 53% 30.43 in 10.0 mi Calm Calm - N/A   Clear
8:53 PM 19.0 °F 13.9 °F 9.0 °F 65% 30.44 in 10.0 mi East 3.5 mph - N/A   Clear
9:53 PM 19.9 °F 13.4 °F 8.1 °F 60% 30.43 in 10.0 mi WNW 4.6 mph - N/A   Clear
10:53 PM 18.0 °F 12.7 °F 10.0 °F 71% 30.45 in 10.0 mi SW 3.5 mph - N/A   Clear
11:53 PM 16.0 °F 10.4 °F 10.0 °F 77% 30.47 in 10.0 mi East 3.5 mph - N/A   Clear